Terminal Aerodrome Forecast
Issued by NWS Wichita, KS

Home | Current Version | Previous Version | Text Only | Print | Product List | Glossary On
Versions: 1 2 3 4 5 6 7 8 9 10 11 12 13 14
000
FTUS43 KICT 211124
TAFICT
TAF
KICT 211124Z 2112/2212 18007KT P6SM SKC
     FM211500 19013KT P6SM SKC
     FM211800 19017G26KT P6SM SCT070
     FM220000 17009KT P6SM SCT060
     FM220300 17009KT P6SM SCT250=

USA.gov is the U.S. government's official web portal to all federal, state and local government web resources and services.